This is the latest recevied weather packets stored in our database for station/object KM4NDN. If no packets are shown the sender has not sent any weather packets the latest 10 day(s).
| Time | Temp. | Humidity | Pressure | Rain* | Wind** | Luminosity | Snow |
|---|---|---|---|---|---|---|---|
| 1778111107 | 11.11° C | 50% | 1011.4 hPa | 0 mm | - | 31 W/m² | - |
| 1778110804 | 11.67° C | 50% | 1011.6 hPa | 0 mm | - | 35 W/m² | - |
| 1778110501 | 11.67° C | 47% | 1011.3 hPa | 0 mm | - | 51 W/m² | - |
| 1778110197 | 11.67° C | 46% | 1011.3 hPa | 0 mm | - | 58 W/m² | - |
| 1778109894 | 11.67° C | 51% | 1011.3 hPa | 0 mm | - | 68 W/m² | - |
| 1778109590 | 11.67° C | 45% | 1011.4 hPa | 0 mm | - | 67 W/m² | - |
| 1778109287 | 11.67° C | 47% | 1011.5 hPa | 0 mm | - | 65 W/m² | - |
| 1778108984 | 11.67° C | 46% | 1011.5 hPa | 0 mm | - | 71 W/m² | - |
| 1778108680 | 11.67° C | 44% | 1011.4 hPa | 0 mm | - | 82 W/m² | - |
| 1778108377 | 11.67° C | 45% | 1011.3 hPa | 0 mm | - | 96 W/m² | - |
| 1778108075 | 11.67° C | 47% | 1011 hPa | 0 mm | - | 79 W/m² | - |
| 1778107771 | 11.67° C | 47% | 1011.4 hPa | 0 mm | - | 79 W/m² | - |
| 1778107469 | 11.67° C | 45% | 1011.4 hPa | 0 mm | - | 98 W/m² | - |
| 1778107165 | 11.67° C | 46% | 1011.4 hPa | 0 mm | - | 117 W/m² | - |
| 1778106860 | 11.67° C | 48% | 1011.3 hPa | 0 mm | - | 110 W/m² | - |
| 1778106558 | 11.11° C | 47% | 1011.4 hPa | 0 mm | - | 101 W/m² | - |
| 1778106254 | 11.11° C | 45% | 1011.6 hPa | 0 mm | - | 102 W/m² | - |
| 1778105951 | 11.67° C | 48% | 1011.5 hPa | 0 mm | - | 106 W/m² | - |
| 1778105649 | 11.67° C | 47% | 1011.7 hPa | 0 mm | - | 101 W/m² | - |
| 1778105346 | 11.67° C | 50% | 1011.5 hPa | 0 mm | - | 89 W/m² | - |
| 1778105042 | 11.67° C | 48% | 1011.5 hPa | 0 mm | - | 82 W/m² | - |
| 1778104739 | 11.67° C | 47% | 1011.4 hPa | 0 mm | - | 94 W/m² | - |
| 1778104434 | 11.67° C | 44% | 1011.3 hPa | 0 mm | - | 144 W/m² | - |
| 1778104130 | 11.67° C | 45% | 1011.5 hPa | 0 mm | - | 146 W/m² | - |
| 1778103827 | 11.67° C | 45% | 1011.3 hPa | 0 mm | - | 140 W/m² | - |
* Rain latest hour (hover to see other rain measurements)
** Current wind speed in m/s (hover to see current wind gust speed)